Time,TemperatureF,DewpointF,PressureIn,WindDirection,WindDirectionDegrees,WindSpeedMPH,WindSpeedGustMPH,Humidity,HourlyPrecipIn,Conditions,Clouds,dailyrainin,SoftwareType,DateUTC
2013-03-19 00:01:00,32.4,20.1,31.12,WSW,255,0.0,0.0,60,0.00,,---,0.00,VWS V14.01,2013-03-19 07:01:00,
2013-03-19 00:06:00,32.5,20.2,31.12,West,264,0.0,0.0,60,0.00,,---,0.00,VWS V14.01,2013-03-19 07:06:00,
2013-03-19 00:11:00,32.5,20.2,31.12,WSW,256,0.0,0.0,60,0.00,,---,0.00,VWS V14.01,2013-03-19 07:11:00,
2013-03-19 00:16:00,32.5,20.2,31.14,West,268,0.0,0.0,60,0.00,,---,0.00,VWS V14.01,2013-03-19 07:16:00,
2013-03-19 00:21:00,32.4,19.3,31.14,West,262,0.0,0.0,58,0.00,,---,0.00,VWS V14.01,2013-03-19 07:21:00,
2013-03-19 00:26:00,32.2,19.1,31.13,West,269,0.0,0.0,58,0.00,,---,0.00,VWS V14.01,2013-03-19 07:26:00,
2013-03-19 00:32:00,32.1,19.0,31.13,West,263,0.0,0.0,58,0.00,,---,0.00,VWS V14.01,2013-03-19 07:32:00,
2013-03-19 00:37:00,31.9,18.4,31.13,West,266,0.0,0.0,57,0.00,,---,0.00,VWS V14.01,2013-03-19 07:37:00,
2013-03-19 00:42:00,31.9,18.0,31.13,West,267,0.0,0.0,56,0.00,,---,0.00,VWS V14.01,2013-03-19 07:42:00,
2013-03-19 00:47:00,31.9,17.6,31.13,West,267,0.0,0.0,55,0.00,,---,0.00,VWS V14.01,2013-03-19 07:47:00,
2013-03-19 00:52:00,32.1,16.9,31.13,West,273,0.0,0.0,53,0.00,,---,0.00,VWS V14.01,2013-03-19 07:52:00,
2013-03-19 00:57:00,32.2,17.0,31.13,WNW,282,0.0,0.0,53,0.00,,---,0.00,VWS V14.01,2013-03-19 07:57:00,
2013-03-19 01:02:00,32.4,17.2,31.13,WNW,294,0.0,0.0,53,0.00,,---,0.00,VWS V14.01,2013-03-19 08:02:00,
2013-03-19 01:07:00,32.4,17.2,31.14,WNW,294,0.0,0.0,53,0.00,,---,0.00,VWS V14.01,2013-03-19 08:07:00,
2013-03-19 01:12:00,32.5,16.9,31.14,WNW,294,0.0,0.0,52,0.00,,---,0.00,VWS V14.01,2013-03-19 08:12:00,
2013-03-19 01:17:00,32.7,17.0,31.14,WNW,295,0.0,0.0,52,0.00,,---,0.00,VWS V14.01,2013-03-19 08:17:00,
2013-03-19 01:23:00,32.7,17.0,31.14,WNW,295,0.0,0.0,52,0.00,,---,0.00,VWS V14.01,2013-03-19 08:23:00,
2013-03-19 01:28:00,32.7,17.5,31.14,WNW,295,0.0,0.0,53,0.00,,---,0.00,VWS V14.01,2013-03-19 08:28:00,
2013-03-19 01:33:00,32.8,17.6,31.14,WNW,295,0.0,0.0,53,0.00,,---,0.00,VWS V14.01,2013-03-19 08:33:00,
2013-03-19 01:38:00,32.7,17.9,31.14,WNW,295,0.0,0.0,54,0.00,,---,0.00,VWS V14.01,2013-03-19 08:38:00,
2013-03-19 01:43:00,32.7,18.3,31.14,WNW,295,0.0,0.0,55,0.00,,---,0.00,VWS V14.01,2013-03-19 08:43:00,
2013-03-19 01:48:00,32.5,19.0,31.14,WNW,295,0.0,0.0,57,0.00,,---,0.00,VWS V14.01,2013-03-19 08:48:00,
2013-03-19 01:53:00,32.5,18.6,31.14,WNW,295,0.0,0.0,56,0.00,,---,0.00,VWS V14.01,2013-03-19 08:53:00,
2013-03-19 01:58:00,32.5,18.6,31.14,WNW,295,0.0,0.0,56,0.00,,---,0.00,VWS V14.01,2013-03-19 08:58:00,
2013-03-19 02:03:00,32.7,19.2,31.14,WNW,295,0.0,0.0,57,0.00,,---,0.00,VWS V14.01,2013-03-19 09:03:00,
2013-03-19 02:08:00,32.5,19.0,31.15,WNW,295,0.0,0.0,57,0.00,,---,0.00,VWS V14.01,2013-03-19 09:08:00,
2013-03-19 02:13:00,32.2,19.1,31.14,WNW,295,0.0,0.0,58,0.00,,---,0.00,VWS V14.01,2013-03-19 09:13:00,
2013-03-19 02:18:00,32.4,18.5,31.14,WNW,295,0.0,0.0,56,0.00,,---,0.00,VWS V14.01,2013-03-19 09:18:00,
2013-03-19 02:23:00,32.4,18.5,31.14,WNW,295,0.0,0.0,56,0.00,,---,0.00,VWS V14.01,2013-03-19 09:23:00,
2013-03-19 02:29:00,32.1,18.6,31.14,WNW,295,0.0,0.0,57,0.00,,---,0.00,VWS V14.01,2013-03-19 09:29:00,
2013-03-19 02:34:00,32.4,19.3,31.14,WNW,295,0.0,0.0,58,0.00,,---,0.00,VWS V14.01,2013-03-19 09:34:00,
2013-03-19 02:39:00,32.2,19.1,31.14,WNW,295,0.0,0.0,58,0.00,,---,0.00,VWS V14.01,2013-03-19 09:39:00,
2013-03-19 02:44:00,32.1,19.0,31.14,WNW,295,0.0,0.0,58,0.00,,---,0.00,VWS V14.01,2013-03-19 09:44:00,
2013-03-19 02:49:00,32.1,19.4,31.14,WNW,295,0.0,0.0,59,0.00,,---,0.00,VWS V14.01,2013-03-19 09:49:00,
2013-03-19 02:54:00,32.1,19.8,31.14,WNW,295,0.0,0.0,60,0.00,,---,0.00,VWS V14.01,2013-03-19 09:54:00,
2013-03-19 02:59:00,32.1,20.2,31.14,WNW,295,0.0,0.0,61,0.00,,---,0.00,VWS V14.01,2013-03-19 09:59:00,
2013-03-19 03:04:00,31.9,20.4,31.14,WNW,295,0.0,0.0,62,0.00,,---,0.00,VWS V14.01,2013-03-19 10:04:00,
2013-03-19 03:09:00,31.8,20.3,31.14,WNW,295,0.0,0.0,62,0.00,,---,0.00,VWS V14.01,2013-03-19 10:09:00,
2013-03-19 03:14:00,31.6,20.5,31.14,WNW,295,0.0,0.0,63,0.00,,---,0.00,VWS V14.01,2013-03-19 10:14:00,
2013-03-19 03:19:00,31.5,20.4,31.14,WNW,295,0.0,0.0,63,0.00,,---,0.00,VWS V14.01,2013-03-19 10:19:00,
2013-03-19 03:25:00,31.3,20.5,31.13,WNW,295,0.0,0.0,64,0.00,,---,0.00,VWS V14.01,2013-03-19 10:25:00,
2013-03-19 03:30:00,31.3,20.2,31.13,WNW,295,0.0,0.0,63,0.00,,---,0.00,VWS V14.01,2013-03-19 10:30:00,
2013-03-19 03:35:00,31.2,20.1,31.13,WNW,295,0.0,0.0,63,0.00,,---,0.00,VWS V14.01,2013-03-19 10:35:00,
2013-03-19 03:40:00,31.0,20.3,31.13,WNW,295,0.0,0.0,64,0.00,,---,0.00,VWS V14.01,2013-03-19 10:40:00,
2013-03-19 03:45:00,31.0,20.3,31.13,WNW,295,0.0,0.0,64,0.00,,---,0.00,VWS V14.01,2013-03-19 10:45:00,
2013-03-19 03:50:00,30.9,19.8,31.13,WNW,295,0.0,0.0,63,0.00,,---,0.00,VWS V14.01,2013-03-19 10:50:00,
2013-03-19 03:55:00,30.9,20.5,31.13,WNW,295,0.0,0.0,65,0.00,,---,0.00,VWS V14.01,2013-03-19 10:55:00,
2013-03-19 04:00:00,30.9,20.2,31.13,WNW,295,0.0,0.0,64,0.00,,---,0.00,VWS V14.01,2013-03-19 11:00:00,
2013-03-19 04:05:00,30.7,20.0,31.14,WNW,295,0.0,0.0,64,0.00,,---,0.00,VWS V14.01,2013-03-19 11:05:00,
2013-03-19 04:11:00,30.7,20.3,31.14,WNW,295,0.0,0.0,65,0.00,,---,0.00,VWS V14.01,2013-03-19 11:11:00,
2013-03-19 04:16:00,30.7,20.3,31.14,WNW,295,0.0,0.0,65,0.00,,---,0.00,VWS V14.01,2013-03-19 11:16:00,
2013-03-19 04:21:00,30.7,20.3,31.14,WNW,295,0.0,0.0,65,0.00,,---,0.00,VWS V14.01,2013-03-19 11:21:00,
2013-03-19 04:26:00,30.7,20.3,31.14,WNW,295,0.0,0.0,65,0.00,,---,0.00,VWS V14.01,2013-03-19 11:26:00,
2013-03-19 04:31:00,30.6,20.6,31.14,WNW,295,0.0,0.0,66,0.00,,---,0.00,VWS V14.01,2013-03-19 11:31:00,
2013-03-19 04:36:00,30.6,20.6,31.14,WNW,295,0.0,0.0,66,0.00,,---,0.00,VWS V14.01,2013-03-19 11:36:00,
2013-03-19 04:42:00,30.6,20.2,31.14,WNW,295,0.0,0.0,65,0.00,,---,0.00,VWS V14.01,2013-03-19 11:42:00,
2013-03-19 04:47:00,30.6,19.9,31.14,WNW,295,0.0,0.0,64,0.00,,---,0.00,VWS V14.01,2013-03-19 11:47:00,
2013-03-19 04:52:00,30.7,20.3,31.14,WNW,295,0.0,0.0,65,0.00,,---,0.00,VWS V14.01,2013-03-19 11:52:00,
2013-03-19 04:57:00,31.3,20.5,31.14,WNW,295,0.0,0.0,64,0.00,,---,0.00,VWS V14.01,2013-03-19 11:57:00,
2013-03-19 05:02:00,31.3,20.9,31.15,WNW,295,0.0,0.0,65,0.00,,---,0.00,VWS V14.01,2013-03-19 12:02:00,
2013-03-19 05:07:00,31.3,20.9,31.13,WNW,295,0.0,0.0,65,0.00,,---,0.00,VWS V14.01,2013-03-19 12:07:00,
2013-03-19 05:12:00,31.2,20.8,31.13,WNW,295,0.0,0.0,65,0.00,,---,0.00,VWS V14.01,2013-03-19 12:12:00,
2013-03-19 05:17:00,31.0,20.6,31.13,WNW,295,0.0,0.0,65,0.00,,---,0.00,VWS V14.01,2013-03-19 12:17:00,
2013-03-19 05:22:00,31.0,21.0,31.13,WNW,295,0.0,0.0,66,0.00,,---,0.00,VWS V14.01,2013-03-19 12:22:00,
2013-03-19 05:27:00,31.0,21.0,31.13,WNW,295,0.0,0.0,66,0.00,,---,0.00,VWS V14.01,2013-03-19 12:27:00,
2013-03-19 05:33:00,30.7,20.3,31.13,WNW,295,0.0,0.0,65,0.00,,---,0.00,VWS V14.01,2013-03-19 12:33:00,
2013-03-19 05:38:00,30.6,20.6,31.13,WNW,295,0.0,0.0,66,0.00,,---,0.00,VWS V14.01,2013-03-19 12:38:00,
2013-03-19 05:43:00,30.6,20.2,31.13,WNW,295,0.0,0.0,65,0.00,,---,0.00,VWS V14.01,2013-03-19 12:43:00,
2013-03-19 05:48:00,30.4,20.1,31.13,WNW,295,0.0,0.0,65,0.00,,---,0.00,VWS V14.01,2013-03-19 12:48:00,
2013-03-19 05:53:00,30.3,20.0,31.13,WNW,295,0.0,0.0,65,0.00,,---,0.00,VWS V14.01,2013-03-19 12:53:00,
2013-03-19 05:58:00,30.3,20.0,31.13,WNW,294,0.0,0.0,65,0.00,,---,0.00,VWS V14.01,2013-03-19 12:58:00,
2013-03-19 06:03:00,30.1,19.8,31.13,WNW,290,0.0,0.0,65,0.00,,---,0.00,VWS V14.01,2013-03-19 13:03:00,
2013-03-19 06:08:00,30.1,20.1,31.12,WNW,289,0.0,0.0,66,0.00,,---,0.00,VWS V14.01,2013-03-19 13:08:00,
2013-03-19 06:13:00,30.3,20.3,31.12,WNW,289,0.0,0.0,66,0.00,,---,0.00,VWS V14.01,2013-03-19 13:13:00,
2013-03-19 06:18:00,30.3,20.3,31.12,WNW,287,0.0,0.0,66,0.00,,---,0.00,VWS V14.01,2013-03-19 13:18:00,
2013-03-19 06:23:00,30.4,20.4,31.12,WNW,285,0.0,0.0,66,0.00,,---,0.00,VWS V14.01,2013-03-19 13:23:00,
2013-03-19 06:28:00,30.4,20.4,31.12,West,277,0.0,0.0,66,0.00,,---,0.00,VWS V14.01,2013-03-19 13:28:00,
2013-03-19 06:33:00,30.3,20.3,31.12,WSW,256,0.0,0.0,66,0.00,,---,0.00,VWS V14.01,2013-03-19 13:33:00,
2013-03-19 06:39:00,30.1,20.1,31.12,WSW,256,0.0,0.0,66,0.00,,---,0.00,VWS V14.01,2013-03-19 13:39:00,
2013-03-19 06:44:00,30.1,20.5,31.12,WSW,258,0.0,0.0,67,0.00,,---,0.00,VWS V14.01,2013-03-19 13:44:00,
2013-03-19 06:49:00,30.0,20.7,31.12,WSW,258,0.0,0.0,68,0.00,,---,0.00,VWS V14.01,2013-03-19 13:49:00,
2013-03-19 06:54:00,30.0,20.7,31.12,West,269,0.0,0.0,68,0.00,,---,0.00,VWS V14.01,2013-03-19 13:54:00,
2013-03-19 06:59:00,30.0,20.7,31.12,West,269,0.0,0.0,68,0.00,,---,0.00,VWS V14.01,2013-03-19 13:59:00,
2013-03-19 07:04:00,30.0,21.1,31.12,West,269,0.0,0.0,69,0.00,,---,0.00,VWS V14.01,2013-03-19 14:04:00,
2013-03-19 07:09:00,30.0,21.1,31.10,West,263,0.0,0.0,69,0.00,,---,0.00,VWS V14.01,2013-03-19 14:09:00,
2013-03-19 07:14:00,30.0,21.1,31.10,West,261,0.0,0.0,69,0.00,,---,0.00,VWS V14.01,2013-03-19 14:14:00,
2013-03-19 07:19:00,30.1,20.8,31.10,West,261,0.0,0.0,68,0.00,,---,0.00,VWS V14.01,2013-03-19 14:19:00,
2013-03-19 07:24:00,30.3,21.0,31.10,West,261,0.0,0.0,68,0.00,,---,0.00,VWS V14.01,2013-03-19 14:24:00,
2013-03-19 07:29:00,30.4,21.5,31.10,West,260,0.0,0.0,69,0.00,,---,0.00,VWS V14.01,2013-03-19 14:29:00,
2013-03-19 07:34:00,30.6,21.6,31.10,West,261,0.0,0.0,69,0.00,,---,0.00,VWS V14.01,2013-03-19 14:34:00,
2013-03-19 07:39:00,30.7,21.4,31.10,West,261,0.0,0.0,68,0.00,,---,0.00,VWS V14.01,2013-03-19 14:39:00,
2013-03-19 07:44:00,30.9,21.6,31.10,West,260,0.0,0.0,68,0.00,,---,0.00,VWS V14.01,2013-03-19 14:44:00,
2013-03-19 07:49:00,31.2,21.9,31.10,West,260,0.0,0.0,68,0.00,,---,0.00,VWS V14.01,2013-03-19 14:49:00,
2013-03-19 07:54:00,31.2,21.9,31.10,West,260,0.0,0.0,68,0.00,,---,0.00,VWS V14.01,2013-03-19 14:54:00,
2013-03-19 07:59:00,31.2,21.9,31.10,West,260,0.0,0.0,68,0.00,,---,0.00,VWS V14.01,2013-03-19 14:59:00,
2013-03-19 08:04:00,31.3,22.0,31.09,West,261,0.0,0.0,68,0.00,,---,0.00,VWS V14.01,2013-03-19 15:04:00,
2013-03-19 08:10:00,31.3,22.0,31.09,West,261,0.0,0.0,68,0.00,,---,0.00,VWS V14.01,2013-03-19 15:10:00,
2013-03-19 08:15:00,31.3,22.0,31.09,West,261,0.0,0.0,68,0.00,,---,0.00,VWS V14.01,2013-03-19 15:15:00,
2013-03-19 08:20:00,31.5,22.2,31.10,West,261,0.0,0.0,68,0.00,,---,0.00,VWS V14.01,2013-03-19 15:20:00,
2013-03-19 08:25:00,31.6,22.6,31.10,West,261,0.0,0.0,69,0.00,,---,0.00,VWS V14.01,2013-03-19 15:25:00,
2013-03-19 08:30:00,31.6,22.3,31.10,West,261,0.0,0.0,68,0.00,,---,0.00,VWS V14.01,2013-03-19 15:30:00,
2013-03-19 08:35:00,31.6,22.3,31.10,West,260,0.0,0.0,68,0.00,,---,0.00,VWS V14.01,2013-03-19 15:35:00,
2013-03-19 08:40:00,32.1,22.4,31.10,West,261,0.0,0.0,67,0.00,,---,0.00,VWS V14.01,2013-03-19 15:40:00,
2013-03-19 08:45:00,32.4,23.0,31.10,West,261,0.0,0.0,68,0.00,,---,0.00,VWS V14.01,2013-03-19 15:45:00,
2013-03-19 08:50:00,32.7,22.6,31.10,West,261,0.0,0.0,66,0.00,,---,0.00,VWS V14.01,2013-03-19 15:50:00,
2013-03-19 08:55:00,32.9,22.8,31.10,West,261,0.0,0.0,66,0.00,,---,0.00,VWS V14.01,2013-03-19 15:55:00,
2013-03-19 09:01:00,32.7,22.6,31.10,West,261,0.0,0.0,66,0.00,,---,0.00,VWS V14.01,2013-03-19 16:01:00,
2013-03-19 09:06:00,32.7,23.0,31.09,West,261,0.0,0.0,67,0.00,,---,0.00,VWS V14.01,2013-03-19 16:06:00,
2013-03-19 09:11:00,32.5,22.8,31.09,West,261,0.0,0.0,67,0.00,,---,0.00,VWS V14.01,2013-03-19 16:11:00,
2013-03-19 09:16:00,32.4,23.0,31.09,West,261,0.0,0.0,68,0.00,,---,0.00,VWS V14.01,2013-03-19 16:16:00,
2013-03-19 09:21:00,32.4,23.0,31.09,West,261,0.0,0.0,68,0.00,,---,0.00,VWS V14.01,2013-03-19 16:21:00,
2013-03-19 09:26:00,32.7,23.3,31.09,West,261,0.0,0.0,68,0.00,,---,0.00,VWS V14.01,2013-03-19 16:26:00,
2013-03-19 09:31:00,32.7,22.6,31.09,West,261,0.0,0.0,66,0.00,,---,0.00,VWS V14.01,2013-03-19 16:31:00,
2013-03-19 09:36:00,32.9,22.8,31.09,West,260,0.0,0.0,66,0.00,,---,0.00,VWS V14.01,2013-03-19 16:36:00,
2013-03-19 09:42:00,32.9,22.8,31.09,West,261,0.0,0.0,66,0.00,,---,0.00,VWS V14.01,2013-03-19 16:42:00,
2013-03-19 09:47:00,32.5,22.4,31.09,NW,308,0.0,0.0,66,0.00,,---,0.00,VWS V14.01,2013-03-19 16:47:00,
2013-03-19 09:52:00,32.5,22.4,31.09,NW,309,0.0,0.0,66,0.00,,---,0.00,VWS V14.01,2013-03-19 16:52:00,
2013-03-19 09:57:00,32.8,23.1,31.09,NW,309,0.0,0.0,67,0.00,,---,0.00,VWS V14.01,2013-03-19 16:57:00,
2013-03-19 10:02:00,33.2,22.7,31.09,NW,308,0.0,0.0,65,0.00,,---,0.00,VWS V14.01,2013-03-19 17:02:00,
2013-03-19 10:08:00,33.2,21.6,31.09,NW,309,0.0,0.0,62,0.00,,---,0.00,VWS V14.01,2013-03-19 17:08:00,
2013-03-19 10:13:00,33.5,21.9,31.09,NW,309,0.0,0.0,62,0.00,,---,0.00,VWS V14.01,2013-03-19 17:13:00,
2013-03-19 10:18:00,33.7,22.1,31.09,NW,309,0.0,0.0,62,0.00,,---,0.00,VWS V14.01,2013-03-19 17:18:00,
2013-03-19 10:23:00,33.8,22.5,31.09,NW,309,0.0,0.0,63,0.00,,---,0.00,VWS V14.01,2013-03-19 17:23:00,
2013-03-19 10:28:00,34.0,22.4,31.09,NW,312,0.0,0.0,62,0.00,,---,0.00,VWS V14.01,2013-03-19 17:28:00,
2013-03-19 10:33:00,34.6,23.3,31.10,NW,313,0.0,0.0,63,0.00,,---,0.00,VWS V14.01,2013-03-19 17:33:00,
2013-03-19 10:38:00,34.4,23.1,31.09,NNW,334,0.0,0.0,63,0.00,,---,0.00,VWS V14.01,2013-03-19 17:38:00,
2013-03-19 10:43:00,35.5,23.4,31.10,North,5,0.0,0.0,61,0.00,,---,0.00,VWS V14.01,2013-03-19 17:43:00,
2013-03-19 10:48:00,35.6,23.9,31.10,ENE,57,0.0,0.0,62,0.00,,---,0.00,VWS V14.01,2013-03-19 17:48:00,
2013-03-19 10:53:00,36.0,23.1,31.10,ENE,57,0.0,0.0,59,0.00,,---,0.00,VWS V14.01,2013-03-19 17:53:00,
2013-03-19 10:58:00,36.6,23.2,31.11,ENE,58,0.0,0.0,58,0.00,,---,0.00,VWS V14.01,2013-03-19 17:58:00,
2013-03-19 11:04:00,37.0,22.8,31.11,ENE,59,0.0,0.0,56,0.00,,---,0.00,VWS V14.01,2013-03-19 18:04:00,
2013-03-19 11:09:00,37.0,23.2,31.11,ENE,59,0.0,0.0,57,0.00,,---,0.00,VWS V14.01,2013-03-19 18:09:00,
2013-03-19 11:14:00,37.3,22.6,31.11,ENE,59,0.0,0.0,55,0.00,,---,0.00,VWS V14.01,2013-03-19 18:14:00,
2013-03-19 11:19:00,37.2,23.0,31.11,NE,51,0.0,0.0,56,0.00,,---,0.00,VWS V14.01,2013-03-19 18:19:00,
2013-03-19 11:24:00,37.0,22.8,31.11,NNE,24,0.0,0.0,56,0.00,,---,0.00,VWS V14.01,2013-03-19 18:24:00,
2013-03-19 11:29:00,37.0,22.8,31.11,NNE,24,0.0,0.0,56,0.00,,---,0.00,VWS V14.01,2013-03-19 18:29:00,
2013-03-19 11:34:00,37.3,23.1,31.11,NE,53,0.0,0.0,56,0.00,,---,0.00,VWS V14.01,2013-03-19 18:34:00,
2013-03-19 11:39:00,38.2,23.0,31.11,NE,46,0.0,0.0,54,0.00,,---,0.00,VWS V14.01,2013-03-19 18:39:00,
2013-03-19 11:44:00,38.3,23.1,31.11,NE,41,0.0,0.0,54,0.00,,---,0.00,VWS V14.01,2013-03-19 18:44:00,
2013-03-19 11:49:00,38.0,22.9,31.11,NE,44,0.0,0.0,54,0.00,,---,0.00,VWS V14.01,2013-03-19 18:49:00,
2013-03-19 11:54:00,37.9,22.8,31.11,NE,45,0.0,0.0,54,0.00,,---,0.00,VWS V14.01,2013-03-19 18:54:00,
2013-03-19 11:59:00,37.9,22.8,31.11,NE,51,0.0,0.0,54,0.00,,---,0.00,VWS V14.01,2013-03-19 18:59:00,
2013-03-19 12:04:00,38.5,23.8,31.11,NE,51,0.0,0.0,55,0.00,,---,0.00,VWS V14.01,2013-03-19 19:04:00,
2013-03-19 12:09:00,39.3,23.2,31.11,NE,51,0.0,0.0,52,0.00,,---,0.00,VWS V14.01,2013-03-19 19:09:00,
2013-03-19 12:14:00,40.5,25.2,31.12,NNE,30,0.0,0.0,54,0.00,,---,0.00,VWS V14.01,2013-03-19 19:14:00,
2013-03-19 12:19:00,39.9,23.3,31.12,NNE,32,0.0,0.0,51,0.00,,---,0.00,VWS V14.01,2013-03-19 19:19:00,
2013-03-19 12:24:00,40.1,23.0,31.12,NE,47,0.0,0.0,50,0.00,,---,0.00,VWS V14.01,2013-03-19 19:24:00,
2013-03-19 12:29:00,40.2,23.1,31.12,NE,55,0.0,0.0,50,0.00,,---,0.00,VWS V14.01,2013-03-19 19:29:00,
2013-03-19 12:34:00,40.8,23.6,31.12,NE,44,0.0,0.0,50,0.00,,---,0.00,VWS V14.01,2013-03-19 19:34:00,
2013-03-19 12:39:00,41.2,22.0,31.12,ENE,59,0.0,0.0,46,0.00,,---,0.00,VWS V14.01,2013-03-19 19:39:00,
2013-03-19 12:45:00,43.3,26.4,31.13,NNE,21,0.0,0.0,51,0.00,,---,0.00,VWS V14.01,2013-03-19 19:45:00,
2013-03-19 12:50:00,43.9,24.5,31.15,ENE,72,0.0,0.0,46,0.00,,---,0.00,VWS V14.01,2013-03-19 19:50:00,
2013-03-19 12:55:00,44.6,23.5,31.14,NE,36,0.0,0.0,43,0.00,,---,0.00,VWS V14.01,2013-03-19 19:55:00,
2013-03-19 13:00:00,44.3,22.7,31.14,NNE,18,0.0,0.0,42,0.00,,---,0.00,VWS V14.01,2013-03-19 20:00:00,
2013-03-19 13:05:00,44.2,20.8,31.15,NE,40,0.0,0.0,39,0.00,,---,0.00,VWS V14.01,2013-03-19 20:05:00,
2013-03-19 13:10:00,45.7,23.4,31.15,NE,36,0.0,0.0,41,0.00,,---,0.00,VWS V14.01,2013-03-19 20:10:00,
2013-03-19 13:15:00,45.8,22.3,31.15,ENE,61,0.0,0.0,39,0.00,,---,0.00,VWS V14.01,2013-03-19 20:15:00,
2013-03-19 13:20:00,44.9,22.1,31.15,NE,43,0.0,0.0,40,0.00,,---,0.00,VWS V14.01,2013-03-19 20:20:00,
2013-03-19 13:25:00,43.5,22.0,31.15,NE,50,0.0,0.0,42,0.00,,---,0.00,VWS V14.01,2013-03-19 20:25:00,
2013-03-19 13:31:00,43.3,22.3,31.15,NE,50,0.0,0.0,43,0.00,,---,0.00,VWS V14.01,2013-03-19 20:31:00,
2013-03-19 13:36:00,44.2,23.7,31.14,NE,35,0.0,0.0,44,0.00,,---,0.00,VWS V14.01,2013-03-19 20:36:00,
2013-03-19 13:41:00,44.5,21.7,31.15,NE,51,0.0,0.0,40,0.00,,---,0.00,VWS V14.01,2013-03-19 20:41:00,
2013-03-19 13:46:00,44.3,21.5,31.15,NE,44,0.0,0.0,40,0.00,,---,0.00,VWS V14.01,2013-03-19 20:46:00,
2013-03-19 13:51:00,44.6,21.8,31.16,NE,45,0.0,0.0,40,0.00,,---,0.00,VWS V14.01,2013-03-19 20:51:00,
2013-03-19 13:56:00,44.8,21.4,31.16,NE,48,0.0,0.0,39,0.00,,---,0.00,VWS V14.01,2013-03-19 20:56:00,
2013-03-19 14:01:00,45.4,21.3,31.16,NE,46,0.0,0.0,38,0.00,,---,0.00,VWS V14.01,2013-03-19 21:01:00,
2013-03-19 14:06:00,46.0,23.0,31.15,NE,37,0.0,0.0,40,0.00,,---,0.00,VWS V14.01,2013-03-19 21:06:00,
2013-03-19 14:11:00,46.1,24.3,31.16,NNE,27,0.0,0.0,42,0.00,,---,0.00,VWS V14.01,2013-03-19 21:11:00,
2013-03-19 14:17:00,46.8,22.5,31.15,NE,44,0.0,0.0,38,0.00,,---,0.00,VWS V14.01,2013-03-19 21:17:00,
2013-03-19 14:22:00,47.3,21.7,31.15,NNE,28,0.0,0.0,36,0.00,,---,0.00,VWS V14.01,2013-03-19 21:22:00,
2013-03-19 14:27:00,47.6,22.6,31.15,NE,53,0.0,0.0,37,0.00,,---,0.00,VWS V14.01,2013-03-19 21:27:00,
2013-03-19 14:32:00,48.0,21.7,31.17,NE,36,0.0,0.0,35,0.00,,---,0.00,VWS V14.01,2013-03-19 21:32:00,
2013-03-19 14:37:00,47.7,22.1,31.17,NE,49,0.0,0.0,36,0.00,,---,0.00,VWS V14.01,2013-03-19 21:37:00,
2013-03-19 14:42:00,47.6,22.6,31.17,North,5,0.0,0.0,37,0.00,,---,0.00,VWS V14.01,2013-03-19 21:42:00,
2013-03-19 14:47:00,47.6,23.9,31.17,NE,40,0.0,0.0,39,0.00,,---,0.00,VWS V14.01,2013-03-19 21:47:00,
2013-03-19 14:52:00,47.3,23.0,31.15,North,355,0.0,0.0,38,0.00,,---,0.00,VWS V14.01,2013-03-19 21:52:00,
2013-03-19 14:57:00,46.7,23.7,31.16,NNE,26,0.0,0.0,40,0.00,,---,0.00,VWS V14.01,2013-03-19 21:57:00,
2013-03-19 15:03:00,46.4,22.8,31.15,North,5,0.0,0.0,39,0.00,,---,0.00,VWS V14.01,2013-03-19 22:03:00,
2013-03-19 15:08:00,46.2,23.8,31.14,NNE,22,0.0,0.0,41,0.00,,---,0.00,VWS V14.01,2013-03-19 22:08:00,
2013-03-19 15:13:00,46.1,23.1,31.14,NE,40,0.0,0.0,40,0.00,,---,0.00,VWS V14.01,2013-03-19 22:13:00,
2013-03-19 15:18:00,46.2,22.0,31.14,North,5,0.0,0.0,38,0.00,,---,0.00,VWS V14.01,2013-03-19 22:18:00,
2013-03-19 15:23:00,46.5,24.1,31.14,NNW,334,0.0,0.0,41,0.00,,---,0.00,VWS V14.01,2013-03-19 22:23:00,
2013-03-19 15:28:00,46.4,24.6,31.14,NNW,346,0.0,0.0,42,0.00,,---,0.00,VWS V14.01,2013-03-19 22:28:00,
2013-03-19 15:33:00,46.2,23.2,31.14,North,355,0.0,0.0,40,0.00,,---,0.00,VWS V14.01,2013-03-19 22:33:00,
2013-03-19 15:38:00,46.0,24.8,31.14,North,11,0.0,0.0,43,0.00,,---,0.00,VWS V14.01,2013-03-19 22:38:00,
2013-03-19 15:44:00,45.5,23.8,31.14,NNW,346,0.0,0.0,42,0.00,,---,0.00,VWS V14.01,2013-03-19 22:44:00,
2013-03-19 15:49:00,45.2,25.1,31.15,NW,310,0.0,0.0,45,0.00,,---,0.00,VWS V14.01,2013-03-19 22:49:00,
2013-03-19 15:54:00,44.9,25.4,31.15,NW,319,0.0,0.0,46,0.00,,---,0.00,VWS V14.01,2013-03-19 22:54:00,
2013-03-19 15:59:00,45.1,25.6,31.15,NNW,339,0.0,0.0,46,0.00,,---,0.00,VWS V14.01,2013-03-19 22:59:00,
2013-03-19 16:04:00,44.8,24.2,31.15,North,355,0.0,0.0,44,0.00,,---,0.00,VWS V14.01,2013-03-19 23:04:00,
2013-03-19 16:09:00,44.2,24.2,31.13,North,355,0.0,0.0,45,0.00,,---,0.00,VWS V14.01,2013-03-19 23:09:00,
2013-03-19 16:14:00,44.6,25.1,31.15,North,11,0.0,0.0,46,0.00,,---,0.00,VWS V14.01,2013-03-19 23:14:00,
2013-03-19 16:19:00,44.5,25.0,31.14,North,9,0.0,0.0,46,0.00,,---,0.00,VWS V14.01,2013-03-19 23:19:00,
2013-03-19 16:24:00,44.6,25.1,31.15,North,360,0.0,0.0,46,0.00,,---,0.00,VWS V14.01,2013-03-19 23:24:00,
2013-03-19 16:29:00,44.8,25.3,31.15,North,360,0.0,0.0,46,0.00,,---,0.00,VWS V14.01,2013-03-19 23:29:00,
2013-03-19 16:34:00,44.8,25.3,31.15,North,360,0.0,0.0,46,0.00,,---,0.00,VWS V14.01,2013-03-19 23:34:00,
2013-03-19 16:40:00,44.5,24.5,31.15,NNE,12,0.0,0.0,45,0.00,,---,0.00,VWS V14.01,2013-03-19 23:40:00,
2013-03-19 16:45:00,44.3,25.4,31.14,NNE,12,0.0,0.0,47,0.00,,---,0.00,VWS V14.01,2013-03-19 23:45:00,
2013-03-19 16:50:00,44.2,24.8,31.13,NNE,22,0.0,0.0,46,0.00,,---,0.00,VWS V14.01,2013-03-19 23:50:00,
2013-03-19 16:55:00,44.1,24.7,31.13,NNE,22,0.0,0.0,46,0.00,,---,0.00,VWS V14.01,2013-03-19 23:55:00,
2013-03-19 17:00:00,44.1,24.7,31.13,North,355,0.0,0.0,46,0.00,,---,0.00,VWS V14.01,2013-03-20 00:00:00,
2013-03-19 17:05:00,44.3,25.4,31.14,NNW,348,0.0,0.0,47,0.00,,---,0.00,VWS V14.01,2013-03-20 00:05:00,
2013-03-19 17:10:00,44.5,27.0,31.14,NNW,340,0.0,0.0,50,0.00,,---,0.00,VWS V14.01,2013-03-20 00:10:00,
2013-03-19 17:15:00,44.3,26.4,31.14,NNW,338,0.0,0.0,49,0.00,,---,0.00,VWS V14.01,2013-03-20 00:15:00,
2013-03-19 17:20:00,44.2,27.2,31.14,NNW,333,0.0,0.0,51,0.00,,---,0.00,VWS V14.01,2013-03-20 00:20:00,
2013-03-19 17:25:00,44.3,26.9,31.14,NW,307,0.0,0.0,50,0.00,,---,0.00,VWS V14.01,2013-03-20 00:25:00,
2013-03-19 17:30:00,44.2,28.2,31.14,NW,307,0.0,0.0,53,0.00,,---,0.00,VWS V14.01,2013-03-20 00:30:00,
2013-03-19 17:36:00,43.8,32.4,31.14,WNW,300,0.0,0.0,64,0.01,,---,0.01,VWS V14.01,2013-03-20 00:36:00,
2013-03-19 17:41:00,42.9,33.4,31.13,West,267,0.0,0.0,69,0.01,,---,0.01,VWS V14.01,2013-03-20 00:41:00,
2013-03-19 17:46:00,42.3,32.5,31.13,West,267,0.0,0.0,68,0.02,,---,0.02,VWS V14.01,2013-03-20 00:46:00,
2013-03-19 17:51:00,42.2,33.5,31.13,West,267,0.0,0.0,71,0.02,,---,0.02,VWS V14.01,2013-03-20 00:51:00,
2013-03-19 17:57:00,42.2,33.8,31.13,West,267,0.0,0.0,72,0.03,,---,0.03,VWS V14.01,2013-03-20 00:57:00,
2013-03-19 18:02:00,41.9,34.2,31.13,WSW,242,0.0,0.0,74,0.03,,---,0.03,VWS V14.01,2013-03-20 01:02:00,
2013-03-19 18:07:00,41.6,34.6,31.13,WSW,242,0.0,0.0,76,0.04,,---,0.04,VWS V14.01,2013-03-20 01:07:00,
2013-03-19 18:12:00,41.2,34.9,31.12,WSW,241,0.0,0.0,78,0.04,,---,0.04,VWS V14.01,2013-03-20 01:12:00,
2013-03-19 18:17:00,41.1,35.4,31.12,SW,220,0.0,0.0,80,0.05,,---,0.05,VWS V14.01,2013-03-20 01:17:00,
2013-03-19 18:22:00,40.9,36.1,31.12,SSW,197,0.0,0.0,83,0.05,,---,0.05,VWS V14.01,2013-03-20 01:22:00,
2013-03-19 18:27:00,40.8,36.7,31.12,SSW,196,0.0,0.0,85,0.06,,---,0.06,VWS V14.01,2013-03-20 01:27:00,
2013-03-19 18:32:00,40.1,36.0,31.12,South,171,0.0,0.0,85,0.06,,---,0.06,VWS V14.01,2013-03-20 01:32:00,
2013-03-19 18:37:00,39.6,35.5,31.12,SE,140,0.0,0.0,85,0.07,,---,0.07,VWS V14.01,2013-03-20 01:37:00,
2013-03-19 18:42:00,39.5,35.7,31.12,SE,131,0.0,0.0,86,0.07,,---,0.08,VWS V14.01,2013-03-20 01:42:00,
2013-03-19 18:48:00,39.1,35.8,31.11,SE,130,0.0,0.0,88,0.07,,---,0.08,VWS V14.01,2013-03-20 01:48:00,
2013-03-19 18:53:00,38.6,35.4,31.11,ESE,119,0.0,0.0,88,0.06,,---,0.08,VWS V14.01,2013-03-20 01:53:00,
2013-03-19 18:58:00,38.2,35.0,31.11,ESE,119,0.0,0.0,88,0.07,,---,0.09,VWS V14.01,2013-03-20 01:58:00,
2013-03-19 19:03:00,38.2,35.0,31.11,ESE,119,0.0,0.0,88,0.06,,---,0.09,VWS V14.01,2013-03-20 02:03:00,
2013-03-19 19:08:00,38.3,35.3,31.11,ESE,119,0.0,0.0,89,0.06,,---,0.09,VWS V14.01,2013-03-20 02:08:00,
2013-03-19 19:13:00,38.6,35.6,31.12,ESE,123,0.0,0.0,89,0.05,,---,0.09,VWS V14.01,2013-03-20 02:13:00,
2013-03-19 19:18:00,39.1,36.4,31.12,SE,136,0.0,0.0,90,0.04,,---,0.09,VWS V14.01,2013-03-20 02:18:00,
2013-03-19 19:23:00,39.8,37.1,31.12,SE,124,0.0,0.0,90,0.04,,---,0.09,VWS V14.01,2013-03-20 02:23:00,
2013-03-19 19:28:00,40.1,37.7,31.12,SSW,200,0.0,0.0,91,0.03,,---,0.09,VWS V14.01,2013-03-20 02:28:00,
2013-03-19 19:34:00,40.3,37.9,31.12,South,180,0.0,0.0,91,0.03,,---,0.09,VWS V14.01,2013-03-20 02:34:00,
2013-03-19 19:39:00,40.6,38.2,31.13,SSW,192,0.0,0.0,91,0.04,,---,0.10,VWS V14.01,2013-03-20 02:39:00,
2013-03-19 19:44:00,40.9,38.5,31.13,SSE,163,0.0,0.0,91,0.03,,---,0.10,VWS V14.01,2013-03-20 02:44:00,
2013-03-19 19:49:00,41.1,38.7,31.13,SW,216,0.0,0.0,91,0.03,,---,0.11,VWS V14.01,2013-03-20 02:49:00,
2013-03-19 19:54:00,40.9,38.5,31.13,SSW,210,0.0,0.0,91,0.03,,---,0.11,VWS V14.01,2013-03-20 02:54:00,
2013-03-19 19:59:00,41.1,38.7,31.13,SSE,157,0.0,0.0,91,0.02,,---,0.11,VWS V14.01,2013-03-20 02:59:00,
2013-03-19 20:04:00,41.1,38.7,31.13,SSE,164,0.0,0.0,91,0.03,,---,0.12,VWS V14.01,2013-03-20 03:04:00,
2013-03-19 20:09:00,41.1,39.0,31.14,SSE,165,0.0,0.0,92,0.03,,---,0.12,VWS V14.01,2013-03-20 03:09:00,
2013-03-19 20:14:00,40.9,38.8,31.14,South,178,0.0,0.0,92,0.03,,---,0.12,VWS V14.01,2013-03-20 03:14:00,
2013-03-19 20:19:00,40.9,38.8,31.14,SSE,167,0.0,0.0,92,0.03,,---,0.12,VWS V14.01,2013-03-20 03:19:00,
2013-03-19 20:24:00,40.9,38.8,31.14,South,172,0.0,0.0,92,0.03,,---,0.12,VWS V14.01,2013-03-20 03:24:00,
2013-03-19 20:30:00,40.8,38.7,31.14,South,186,0.0,0.0,92,0.03,,---,0.12,VWS V14.01,2013-03-20 03:30:00,
2013-03-19 20:35:00,40.8,38.7,31.14,SSW,199,0.0,0.0,92,0.03,,---,0.12,VWS V14.01,2013-03-20 03:35:00,
2013-03-19 20:40:00,40.6,38.5,31.14,SSE,158,0.0,0.0,92,0.02,,---,0.12,VWS V14.01,2013-03-20 03:40:00,
2013-03-19 20:45:00,40.6,38.5,31.14,SSE,159,0.0,0.0,92,0.02,,---,0.12,VWS V14.01,2013-03-20 03:45:00,
2013-03-19 20:50:00,40.5,38.4,31.14,South,171,0.0,0.0,92,0.01,,---,0.12,VWS V14.01,2013-03-20 03:50:00,
2013-03-19 20:55:00,40.5,38.4,31.14,SSE,163,0.0,0.0,92,0.01,,---,0.12,VWS V14.01,2013-03-20 03:55:00,
2013-03-19 21:00:00,40.2,38.1,31.13,SSW,194,0.0,0.0,92,0.01,,---,0.12,VWS V14.01,2013-03-20 04:00:00,
2013-03-19 21:01:00,40.2,38.1,31.13,SSE,161,0.0,0.0,92,0.01,,---,0.12,VWS V14.01,2013-03-20 04:01:00,
2013-03-19 21:06:00,40.3,38.2,31.13,SSE,159,0.0,0.0,92,0.00,,---,0.12,VWS V14.01,2013-03-20 04:06:00,
2013-03-19 21:12:00,40.3,38.2,31.13,SSE,162,0.0,0.0,92,0.00,,---,0.12,VWS V14.01,2013-03-20 04:12:00,
2013-03-19 21:17:00,40.2,38.1,31.13,South,177,0.0,0.0,92,0.00,,---,0.12,VWS V14.01,2013-03-20 04:17:00,
2013-03-19 21:22:00,40.2,38.1,31.13,South,173,0.0,0.0,92,0.00,,---,0.12,VWS V14.01,2013-03-20 04:22:00,
2013-03-19 21:27:00,40.2,38.1,31.13,South,173,0.0,0.0,92,0.00,,---,0.12,VWS V14.01,2013-03-20 04:27:00,
2013-03-19 21:32:00,40.3,38.2,31.13,SSE,167,0.0,0.0,92,0.00,,---,0.12,VWS V14.01,2013-03-20 04:32:00,
2013-03-19 21:37:00,40.3,38.2,31.13,SSE,167,0.0,0.0,92,0.00,,---,0.12,VWS V14.01,2013-03-20 04:37:00,
2013-03-19 21:42:00,40.5,38.4,31.14,SSW,192,0.0,0.0,92,0.00,,---,0.12,VWS V14.01,2013-03-20 04:42:00,
2013-03-19 21:47:00,40.5,38.4,31.14,South,184,0.0,0.0,92,0.00,,---,0.12,VWS V14.01,2013-03-20 04:47:00,
2013-03-19 21:52:00,40.6,38.5,31.14,SSE,158,0.0,0.0,92,0.01,,---,0.13,VWS V14.01,2013-03-20 04:52:00,
2013-03-19 21:57:00,40.6,38.5,31.14,SSE,156,0.0,0.0,92,0.01,,---,0.13,VWS V14.01,2013-03-20 04:57:00,
2013-03-19 22:02:00,40.6,38.5,31.14,South,182,0.0,0.0,92,0.01,,---,0.13,VWS V14.01,2013-03-20 05:02:00,
2013-03-19 22:07:00,40.8,38.7,31.17,SSE,156,0.0,0.0,92,0.01,,---,0.13,VWS V14.01,2013-03-20 05:07:00,
2013-03-19 22:13:00,40.9,38.8,31.17,SSE,153,0.0,0.0,92,0.01,,---,0.13,VWS V14.01,2013-03-20 05:13:00,
2013-03-19 22:18:00,40.8,38.7,31.17,South,172,0.0,0.0,92,0.01,,---,0.13,VWS V14.01,2013-03-20 05:18:00,
2013-03-19 22:23:00,40.5,38.4,31.17,SSE,151,0.0,0.0,92,0.01,,---,0.13,VWS V14.01,2013-03-20 05:23:00,
2013-03-19 22:28:00,40.3,38.2,31.15,South,191,0.0,0.0,92,0.01,,---,0.13,VWS V14.01,2013-03-20 05:28:00,
2013-03-19 22:33:00,40.3,38.2,31.15,SSW,203,0.0,0.0,92,0.01,,---,0.13,VWS V14.01,2013-03-20 05:33:00,
2013-03-19 22:38:00,40.2,38.1,31.15,SSE,163,0.0,0.0,92,0.01,,---,0.13,VWS V14.01,2013-03-20 05:38:00,
2013-03-19 22:43:00,40.3,38.2,31.15,South,188,0.0,0.0,92,0.01,,---,0.13,VWS V14.01,2013-03-20 05:43:00,
2013-03-19 22:48:00,40.5,38.4,31.17,SSE,166,0.0,0.0,92,0.01,,---,0.13,VWS V14.01,2013-03-20 05:48:00,
2013-03-19 22:53:00,40.5,38.4,31.17,SSE,147,0.0,0.0,92,0.01,,---,0.13,VWS V14.01,2013-03-20 05:53:00,
2013-03-19 22:58:00,40.3,38.2,31.15,SSE,166,0.0,0.0,92,0.00,,---,0.13,VWS V14.01,2013-03-20 05:58:00,
2013-03-19 23:04:00,40.2,38.1,31.15,South,169,0.0,0.0,92,0.00,,---,0.13,VWS V14.01,2013-03-20 06:04:00,
2013-03-19 23:09:00,40.2,38.1,31.17,SSW,197,0.0,0.0,92,0.00,,---,0.13,VWS V14.01,2013-03-20 06:09:00,
2013-03-19 23:14:00,40.2,38.1,31.17,SE,133,0.0,0.0,92,0.00,,---,0.13,VWS V14.01,2013-03-20 06:14:00,
2013-03-19 23:19:00,40.1,38.0,31.17,SSW,192,0.0,0.0,92,0.00,,---,0.13,VWS V14.01,2013-03-20 06:19:00,
2013-03-19 23:24:00,40.2,38.1,31.17,South,173,0.0,0.0,92,0.00,,---,0.13,VWS V14.01,2013-03-20 06:24:00,
2013-03-19 23:29:00,40.1,38.0,31.17,South,171,0.0,0.0,92,0.00,,---,0.13,VWS V14.01,2013-03-20 06:29:00,
2013-03-19 23:34:00,40.2,38.1,31.17,SW,220,0.0,0.0,92,0.01,,---,0.14,VWS V14.01,2013-03-20 06:34:00,
2013-03-19 23:39:00,40.3,38.2,31.17,SSE,148,0.0,0.0,92,0.01,,---,0.14,VWS V14.01,2013-03-20 06:39:00,
2013-03-19 23:44:00,40.3,38.2,31.17,South,186,0.0,0.0,92,0.01,,---,0.14,VWS V14.01,2013-03-20 06:44:00,
2013-03-19 23:49:00,40.5,38.1,31.17,South,175,0.0,0.0,91,0.01,,---,0.14,VWS V14.01,2013-03-20 06:49:00,
2013-03-19 23:54:00,40.5,38.1,31.17,SSW,200,0.0,0.0,91,0.01,,---,0.14,VWS V14.01,2013-03-20 06:54:00,
2013-03-19 23:59:00,40.3,37.9,31.17,South,175,0.0,0.0,91,0.01,,---,0.14,VWS V14.01,2013-03-20 06:59:00,